{"data":{"norad_id":60320,"intl_designator":"2024-133V","name":"STARLINK-32199","alt_names":[],"object_type":"PAYLOAD","status":"ACTIVE","operator":null,"country":"US","launch_date":"2024-07-28","launch_site_code":"AFWTR","launch_vehicle":null,"mission":null,"orbit_class":"UNKNOWN","rcs_meters":null,"size_class":null,"mass_kg":null,"dimensions":null,"purposes":["comms"],"wikipedia_slug":null,"has_3d_model":false,"image_url":null,"decayed_at":null,"tle_current":{"epoch":"2026-09-21T19:35:46.413888Z","epoch_age_seconds":71833,"freshness":"FRESH","line1":"1 60320U 24133V   26264.81650942 -.00000604  00000+0 -67497-5 0  9998","line2":"2 60320  53.1597 103.5579 0001230  85.9260 274.1883 15.34390100121709","mean_motion":15.343901,"eccentricity":0.000123,"inclination_deg":53.1597,"raan_deg":103.5579,"arg_perigee_deg":85.926,"mean_anomaly_deg":274.1883,"bstar":-6.7497e-6,"rev_number":12170,"period_min":93.848363594108,"perigee_km":461.89123828282,"apogee_km":463.57409222047,"semimajor_km":6840.8696652516,"source":"CELESTRAK","updated_at":"2026-09-22T09:00:49.218235Z"}}}